Tracking 20383 objects as of 24-Feb-2020
HD Live streaming from Space Station
objects crossing your sky now
Track the group of recently launched Starlink satellites

IRIDIUM 33 DEB

Track IRIDIUM 33 DEB now!
10-day predictions


NORAD ID: 38019
Int'l Code: 1997-051YF
Perigee: 674.5 km
Apogee: 794.7 km
Inclination: 86.4 °
Period: 99.3 minutes
Semi major axis: 7105 km
RCS: 0.0174 m2 (small)
Launch date: September 14, 1997
Source: United States (US)
Launch site: TYURATAM MISSILE AND SPACE COMPLEX (TTMTR)

Note: This is SATELLITE DEBRIS
aabbcc
Your satellite tracking list
Your tracking list is empty




NASA's NSSDC Master Catalog

Two Line Element Set (TLE):
1 38019U 97051YF  20054.31157799 +.00003088 +00000-0 +76565-3 0  9997
2 38019 086.3920 260.2733 0084587 047.9937 312.8429 14.49439449354120
Source of the keplerian elements: AFSPC